Flag for Austria Weather past 2 weeks in Judenburg, Styria, Austria

Now
72 °F

Partly sunny.


Feels Like: 76 °F
Forecast: 54 / 72 °F
Wind: 5 mph from East

Location: Zeltweg

Current Time: Jul 30, 2014 at 6:56:16 PM

Latest Report: Jul 30, 2014 at 5:50 PM


Visibility: 19 mi

Pressure: 29.80 "Hg

Humidity: 57%

Dew point: 55 °F

Location of JudenburgLocation

Historic Weather in Judenburg — Graph

°F

Judenburg temperature yesterday

Maximum temperature yesterday: 75 °F (at 12:50 PM)
Minimum temperature yesterday: 61 °F (at 5:50 AM)
Average temperature yesterday: 70 °F

Past Weeks' High & Low Weather Summary

 TemperatureHumidityPressure
High86 °F (Jul 20, 12:50 PM)100% (Jul 16, 4:50 AM)30.24 "Hg (Jul 16, 4:50 AM)
Low46 °F (Jul 24, 5:50 AM)32% (Jul 18, 6:50 PM)29.77 "Hg (Jul 29, 4:20 PM)
Average67 °F72%29.98 "Hg
* Reported Jul 15 4:20 PM — Jul 30 4:50 PM, Judenburg, Weather by CustomWeather, © 2014

Note: Actual official high and low records may vary slightly from our data, if they occured in-between our weather recording intervals... More about our weather records

Advertising

Judenburg weather history for previous 24 hours

 ConditionsComfort  
Time TempWeatherWind HumidityBarometerVisibility
4:50 PM
Jul 30
73 °FPartly sunny.5 mph57%29.77 "Hg19 mi
4:20 PM72 °FPassing clouds.5 mph57%29.80 "Hg19 mi
3:50 PM70 °FPassing clouds.3 mph64%29.80 "Hg19 mi
3:20 PM70 °FPassing clouds.2 mph69%29.80 "Hg19 mi
2:50 PM68 °FScattered clouds.2 mph69%29.80 "Hg12 mi
2:20 PM66 °FPartly sunny.2 mph73%29.83 "Hg9 mi
1:50 PM66 °FPartly sunny.2 mph73%29.83 "Hg9 mi
1:20 PM63 °FBroken clouds.6 mph94%29.83 "Hg9 mi
12:50 PM63 °FSprinkles. Broken clouds.5 mph83%29.83 "Hg6 mi
12:20 PM63 °FSprinkles. Partly sunny.8 mph88%29.83 "Hg5 mi
11:50 AM61 °FSleet. Partly sunny.7 mph94%29.83 "Hg5 mi
11:20 AM63 °FPartly sunny.2 mph88%29.80 "Hg5 mi
10:50 AM61 °FSprinkles. More clouds than sun.3 mph94%29.83 "Hg4 mi
10:20 AM61 °FRain showers. More clouds than sun.3 mph94%29.80 "Hg4 mi
9:50 AM61 °FRain showers. More clouds than sun.3 mph94%29.83 "Hg4 mi
9:20 AM61 °FMore clouds than sun.3 mph88%29.80 "Hg9 mi
8:50 AM61 °FMore clouds than sun.2 mph88%29.80 "Hg12 mi
8:20 AM61 °FBroken clouds.1 mph88%29.80 "Hg9 mi
7:50 AM61 °FPartly sunny.1 mph88%29.80 "Hg9 mi
7:20 AM59 °FLow clouds.2 mph94%29.80 "Hg9 mi
6:50 AM59 °FPartly sunny.2 mph94%29.80 "Hg9 mi
5:50 AM57 °FPartly cloudy.2 mph94%29.80 "Hg9 mi
10:50 PM
Jul 29
61 °FPassing clouds.5 mph94%29.80 "Hg12 mi
9:50 PM64 °FPartly cloudy.5 mph78%29.80 "Hg12 mi
8:50 PM68 °FPartly sunny.8 mph69%29.77 "Hg12 mi
7:50 PM72 °FPartly sunny.5 mph61%29.77 "Hg16 mi
6:50 PM72 °FPartly sunny.3 mph61%29.77 "Hg16 mi
Weather by CustomWeather, © 2014

See weather overviewHow to use our weather pages